Private Wetterstation Wechselburg
Wetterdaten: Mittwoch, 30.05.2018
Datum Zeit Temp. +2m Bodentemp. Temp.+5cm Temp. Wind Windchill X Diff Temp. Feuchte +2m Feuchte +5cm Luftdruck Regen Wind Richtung Richtung Sonnenschein Taupunkt Windchill Windben
30.05.2018 00:04 20,2 C 20,3 C 19,5 C 19,8 C 19,1 C 0,0 C 78 % 83 % 1011,2 hPa 0,0 l/m 1,4 km/h (1 Bft) NO 45 0 min 16,2 C 19,1 C 3,4 km/h (1 Bft)
30.05.2018 00:09 20,0 C 20,3 C 19,3 C 19,7 C 19,1 C 0,0 C 78 % 83 % 1011,2 hPa 0,0 l/m 3,9 km/h (1 Bft) O-NO 67 0 min 16,0 C 19,1 C 3,4 km/h (1 Bft)
30.05.2018 00:14 20,0 C 20,2 C 19,3 C 19,7 C 19,1 C 0,0 C 78 % 83 % 1011,0 hPa 0,0 l/m 3,5 km/h (1 Bft) NO 45 0 min 16,0 C 19,1 C 2,9 km/h (1 Bft)
30.05.2018 00:19 19,8 C 20,2 C 19,3 C 19,5 C 19,0 C 0,0 C 78 % 83 % 1011,0 hPa 0,0 l/m 1,8 km/h (1 Bft) O-SO 112 0 min 15,8 C 19,0 C 0,0 km/h (0 Bft)
30.05.2018 00:24 19,9 C 20,4 C 19,1 C 19,5 C 18,7 C 0,0 C 79 % 84 % 1011,0 hPa 0,0 l/m 1,0 km/h (0 Bft) S 180 0 min 16,1 C 18,7 C 0,0 km/h (0 Bft)
30.05.2018 00:29 19,6 C 20,3 C 18,9 C 19,1 C 18,1 C 0,0 C 79 % 85 % 1011,0 hPa 0,0 l/m 0,0 km/h (0 Bft) O-SO 112 0 min 15,9 C 18,1 C 0,0 km/h (0 Bft)
30.05.2018 00:34 19,5 C 20,3 C 18,7 C 18,9 C 17,8 C 0,0 C 79 % 85 % 1011,1 hPa 0,0 l/m 0,0 km/h (0 Bft) W 270 0 min 15,8 C 17,8 C 2,1 km/h (1 Bft)
30.05.2018 00:39 19,2 C 20,2 C 18,7 C 18,7 C 17,7 C 0,0 C 79 % 85 % 1011,1 hPa 0,0 l/m 0,0 km/h (0 Bft) W-SW 247 0 min 15,5 C 17,7 C 0,0 km/h (0 Bft)
30.05.2018 00:44 19,3 C 20,2 C 18,5 C 18,7 C 17,5 C 0,0 C 80 % 86 % 1011,1 hPa 0,0 l/m 0,0 km/h (0 Bft) W-NW 292 0 min 15,8 C 17,5 C 0,0 km/h (0 Bft)
30.05.2018 00:49 19,1 C 20,2 C 18,4 C 18,5 C 17,4 C 0,0 C 80 % 86 % 1011,1 hPa 0,0 l/m 0,3 km/h (0 Bft) O-NO 67 0 min 15,6 C 17,4 C 3,1 km/h (1 Bft)
30.05.2018 00:54 18,9 C 20,2 C 18,4 C 18,4 C 17,5 C 0,0 C 80 % 86 % 1011,3 hPa 0,0 l/m 0,5 km/h (0 Bft) NO 45 0 min 15,4 C 17,5 C 0,0 km/h (0 Bft)
30.05.2018 00:59 18,8 C 20,2 C 18,2 C 18,3 C 17,4 C 0,0 C 80 % 85 % 1011,3 hPa 0,0 l/m 0,5 km/h (0 Bft) N-NO 22 0 min 15,3 C 17,4 C 0,0 km/h (0 Bft)
30.05.2018 01:04 18,7 C 20,3 C 18,3 C 18,2 C 17,3 C 0,0 C 80 % 86 % 1011,3 hPa 0,0 l/m 0,0 km/h (0 Bft) NW 315 0 min 15,2 C 17,3 C 0,0 km/h (0 Bft)
30.05.2018 01:09 18,6 C 20,2 C 18,1 C 18,1 C 17,1 C 0,0 C 80 % 86 % 1011,3 hPa 0,0 l/m 0,0 km/h (0 Bft) SW 225 0 min 15,1 C 17,1 C 0,0 km/h (0 Bft)
30.05.2018 01:14 18,4 C 20,2 C 18,1 C 17,9 C 17,0 C 0,0 C 81 % 86 % 1011,9 hPa 0,0 l/m 0,5 km/h (0 Bft) O-NO 67 0 min 15,1 C 17,0 C 2,1 km/h (1 Bft)
30.05.2018 01:19 18,3 C 20,2 C 17,9 C 17,9 C 17,0 C 0,0 C 81 % 86 % 1011,9 hPa 0,0 l/m 0,6 km/h (0 Bft) NO 45 0 min 15,0 C 17,0 C 0,0 km/h (0 Bft)
30.05.2018 01:24 18,2 C 20,2 C 17,9 C 17,8 C 17,0 C 0,0 C 82 % 87 % 1011,9 hPa 0,0 l/m 0,3 km/h (0 Bft) O-NO 67 0 min 15,1 C 17,0 C 0,0 km/h (0 Bft)
30.05.2018 01:29 18,1 C 20,2 C 17,7 C 17,7 C 16,8 C 0,0 C 81 % 87 % 1011,9 hPa 0,0 l/m 0,2 km/h (0 Bft) W 270 0 min 14,8 C 16,8 C 0,0 km/h (0 Bft)
30.05.2018 01:34 17,9 C 20,2 C 17,6 C 17,5 C 16,7 C 0,0 C 82 % 86 % 1011,9 hPa 0,0 l/m 0,5 km/h (0 Bft) O-NO 67 0 min 14,8 C 16,7 C 2,9 km/h (1 Bft)
30.05.2018 01:39 17,8 C 20,2 C 17,5 C 17,5 C 16,8 C 0,0 C 82 % 86 % 1011,9 hPa 0,0 l/m 1,8 km/h (1 Bft) NO 45 0 min 14,7 C 16,8 C 0,0 km/h (0 Bft)
30.05.2018 01:44 17,7 C 20,2 C 17,4 C 17,4 C 16,8 C 0,0 C 82 % 87 % 1011,9 hPa 0,0 l/m 1,4 km/h (1 Bft) O-NO 67 0 min 14,6 C 16,8 C 0,0 km/h (0 Bft)
30.05.2018 01:49 17,6 C 20,2 C 17,3 C 17,2 C 16,5 C 0,0 C 83 % 87 % 1011,9 hPa 0,0 l/m 0,3 km/h (0 Bft) W 270 0 min 14,7 C 16,5 C 0,0 km/h (0 Bft)
30.05.2018 01:54 17,5 C 20,2 C 17,3 C 17,1 C 16,4 C 0,0 C 83 % 88 % 1012,1 hPa 0,0 l/m 0,6 km/h (0 Bft) O-NO 67 0 min 14,6 C 16,4 C 0,0 km/h (0 Bft)
30.05.2018 01:59 17,3 C 20,2 C 17,2 C 16,9 C 16,2 C 0,0 C 83 % 88 % 1012,1 hPa 0,0 l/m 0,5 km/h (0 Bft) O-NO 67 0 min 14,4 C 16,2 C 2,6 km/h (1 Bft)
30.05.2018 02:04 17,2 C 20,1 C 17,1 C 16,9 C 16,3 C 0,0 C 83 % 87 % 1012,1 hPa 0,0 l/m 0,5 km/h (0 Bft) NW 315 0 min 14,3 C 16,3 C 1,9 km/h (1 Bft)
30.05.2018 02:09 17,1 C 20,1 C 17,0 C 16,8 C 16,3 C 0,0 C 83 % 87 % 1012,1 hPa 0,0 l/m 0,5 km/h (0 Bft) W 270 0 min 14,2 C 16,3 C 0,0 km/h (0 Bft)
30.05.2018 02:14 17,1 C 20,0 C 17,0 C 16,8 C 16,2 C 0,0 C 83 % 88 % 1012,2 hPa 0,0 l/m 0,2 km/h (0 Bft) W 270 0 min 14,2 C 16,2 C 0,0 km/h (0 Bft)
30.05.2018 02:19 16,9 C 20,1 C 17,1 C 16,6 C 16,0 C 0,0 C 83 % 88 % 1012,2 hPa 0,0 l/m 0,0 km/h (0 Bft) W-SW 247 0 min 14,0 C 16,0 C 0,0 km/h (0 Bft)
30.05.2018 02:24 16,8 C 20,1 C 17,0 C 16,5 C 15,9 C 0,0 C 83 % 88 % 1012,2 hPa 0,0 l/m 0,0 km/h (0 Bft) W 270 0 min 13,9 C 15,9 C 0,0 km/h (0 Bft)
30.05.2018 02:29 16,8 C 20,1 C 16,9 C 16,4 C 15,7 C 0,0 C 84 % 88 % 1012,2 hPa 0,0 l/m 0,0 km/h (0 Bft) W 270 0 min 14,1 C 15,7 C 0,0 km/h (0 Bft)
30.05.2018 02:34 16,7 C 20,2 C 16,8 C 16,3 C 15,6 C 0,0 C 84 % 88 % 1012,2 hPa 0,0 l/m 0,0 km/h (0 Bft) SW 225 0 min 14,0 C 15,6 C 0,0 km/h (0 Bft)
30.05.2018 02:39 16,7 C 20,1 C 16,7 C 16,3 C 15,5 C 0,0 C 84 % 88 % 1012,2 hPa 0,0 l/m 0,0 km/h (0 Bft) O-NO 67 0 min 14,0 C 15,5 C 0,0 km/h (0 Bft)
30.05.2018 02:44 16,5 C 20,1 C 16,7 C 16,2 C 15,5 C 0,0 C 84 % 88 % 1012,2 hPa 0,0 l/m 0,0 km/h (0 Bft) NO 45 0 min 13,8 C 15,5 C 0,0 km/h (0 Bft)
30.05.2018 02:49 16,4 C 20,2 C 16,5 C 16,0 C 15,3 C 0,0 C 84 % 88 % 1012,2 hPa 0,0 l/m 0,0 km/h (0 Bft) NO 45 0 min 13,7 C 15,3 C 0,0 km/h (0 Bft)
30.05.2018 02:54 16,3 C 20,1 C 16,5 C 16,0 C 15,3 C 0,0 C 84 % 89 % 1012,2 hPa 0,0 l/m 0,0 km/h (0 Bft) O-NO 67 0 min 13,6 C 15,3 C 0,0 km/h (0 Bft)
30.05.2018 02:59 16,3 C 20,0 C 16,4 C 16,0 C 15,3 C 0,0 C 84 % 88 % 1012,2 hPa 0,0 l/m 0,0 km/h (0 Bft) O-NO 67 0 min 13,6 C 15,3 C 0,0 km/h (0 Bft)
30.05.2018 03:04 16,1 C 20,0 C 16,4 C 15,8 C 15,2 C 0,0 C 84 % 88 % 1012,2 hPa 0,0 l/m 0,0 km/h (0 Bft) N-NW 337 0 min 13,4 C 15,2 C 0,0 km/h (0 Bft)
30.05.2018 03:09 16,1 C 20,0 C 16,3 C 15,8 C 15,2 C 0,0 C 84 % 88 % 1012,2 hPa 0,0 l/m 0,0 km/h (0 Bft) N-NW 337 0 min 13,4 C 15,2 C 0,0 km/h (0 Bft)
30.05.2018 03:14 15,9 C 19,9 C 16,3 C 15,6 C 15,1 C 0,0 C 85 % 88 % 1012,2 hPa 0,0 l/m 0,0 km/h (0 Bft) W 270 0 min 13,4 C 15,1 C 0,0 km/h (0 Bft)
30.05.2018 03:19 15,9 C 20,0 C 16,2 C 15,6 C 15,1 C 0,0 C 85 % 88 % 1012,2 hPa 0,0 l/m 0,0 km/h (0 Bft) NO 45 0 min 13,4 C 15,1 C 0,0 km/h (0 Bft)
30.05.2018 03:24 15,7 C 20,0 C 16,3 C 15,5 C 15,1 C 0,0 C 85 % 88 % 1012,2 hPa 0,0 l/m 0,0 km/h (0 Bft) NW 315 0 min 13,2 C 15,1 C 0,0 km/h (0 Bft)
30.05.2018 03:29 15,6 C 19,9 C 16,2 C 15,4 C 15,0 C 0,0 C 84 % 88 % 1012,2 hPa 0,0 l/m 0,0 km/h (0 Bft) W-NW 292 0 min 12,9 C 15,0 C 0,0 km/h (0 Bft)
30.05.2018 03:34 15,7 C 19,9 C 16,1 C 15,5 C 15,0 C 0,0 C 85 % 88 % 1012,2 hPa 0,0 l/m 0,0 km/h (0 Bft) W-NW 292 0 min 13,2 C 15,0 C 0,0 km/h (0 Bft)
30.05.2018 03:39 15,6 C 19,9 C 16,0 C 15,4 C 14,9 C 0,0 C 84 % 88 % 1012,2 hPa 0,0 l/m 0,0 km/h (0 Bft) N-NO 22 0 min 12,9 C 14,9 C 0,0 km/h (0 Bft)
30.05.2018 03:44 15,5 C 19,9 C 16,1 C 15,3 C 14,8 C 0,0 C 84 % 88 % 1012,2 hPa 0,0 l/m 0,0 km/h (0 Bft) O-NO 67 0 min 12,8 C 14,8 C 0,0 km/h (0 Bft)
30.05.2018 03:49 15,4 C 19,9 C 16,0 C 15,2 C 14,7 C 0,0 C 85 % 88 % 1012,2 hPa 0,0 l/m 0,0 km/h (0 Bft) NW 315 0 min 12,9 C 14,7 C 0,0 km/h (0 Bft)
30.05.2018 03:54 15,3 C 19,9 C 15,9 C 15,1 C 14,7 C 0,0 C 85 % 88 % 1012,0 hPa 0,0 l/m 0,0 km/h (0 Bft) NW 315 0 min 12,8 C 14,7 C 0,0 km/h (0 Bft)
30.05.2018 03:59 15,2 C 19,9 C 15,9 C 15,0 C 14,6 C 0,0 C 85 % 89 % 1012,0 hPa 0,0 l/m 0,0 km/h (0 Bft) W-SW 247 0 min 12,7 C 14,6 C 0,0 km/h (0 Bft)
30.05.2018 04:04 15,2 C 19,9 C 15,8 C 15,0 C 14,6 C 0,0 C 85 % 89 % 1012,0 hPa 0,0 l/m 0,0 km/h (0 Bft) S-SW 202 0 min 12,7 C 14,6 C 0,0 km/h (0 Bft)
30.05.2018 04:09 15,1 C 19,9 C 15,9 C 14,9 C 14,6 C 0,0 C 85 % 89 % 1012,0 hPa 0,0 l/m 0,0 km/h (0 Bft) W 270 0 min 12,6 C 14,6 C 0,0 km/h (0 Bft)
30.05.2018 04:14 15,0 C 20,0 C 15,9 C 14,8 C 14,5 C 0,0 C 85 % 89 % 1012,1 hPa 0,0 l/m 0,0 km/h (0 Bft) W 270 0 min 12,5 C 14,5 C 0,0 km/h (0 Bft)
30.05.2018 04:19 15,1 C 19,9 C 15,9 C 14,9 C 14,5 C 0,0 C 85 % 89 % 1012,1 hPa 0,0 l/m 0,0 km/h (0 Bft) S 180 0 min 12,6 C 14,5 C 0,0 km/h (0 Bft)
30.05.2018 04:24 14,9 C 19,9 C 15,9 C 14,8 C 14,5 C 0,0 C 85 % 89 % 1012,1 hPa 0,0 l/m 0,0 km/h (0 Bft) S 180 0 min 12,4 C 14,5 C 0,0 km/h (0 Bft)
30.05.2018 04:29 14,9 C 19,9 C 15,8 C 14,8 C 14,5 C 0,0 C 85 % 89 % 1012,1 hPa 0,0 l/m 0,0 km/h (0 Bft) W-SW 247 0 min 12,4 C 14,5 C 0,0 km/h (0 Bft)
30.05.2018 04:34 14,8 C 19,9 C 15,8 C 14,7 C 14,5 C 0,0 C 85 % 89 % 1012,3 hPa 0,0 l/m 0,0 km/h (0 Bft) W-SW 247 0 min 12,3 C 14,5 C 0,0 km/h (0 Bft)
30.05.2018 04:39 14,8 C 19,8 C 15,6 C 14,7 C 14,5 C 0,0 C 85 % 89 % 1012,3 hPa 0,0 l/m 0,0 km/h (0 Bft) W-SW 247 0 min 12,3 C 14,5 C 0,0 km/h (0 Bft)
30.05.2018 04:44 14,8 C 19,9 C 15,7 C 14,7 C 14,5 C 0,0 C 85 % 89 % 1012,3 hPa 0,0 l/m 0,0 km/h (0 Bft) W 270 0 min 12,3 C 14,5 C 0,0 km/h (0 Bft)
30.05.2018 04:49 14,7 C 19,9 C 15,6 C 14,7 C 14,6 C 0,0 C 85 % 89 % 1012,3 hPa 0,0 l/m 0,0 km/h (0 Bft) O-NO 67 0 min 12,2 C 14,6 C 0,0 km/h (0 Bft)
30.05.2018 04:54 14,7 C 19,9 C 15,7 C 14,7 C 14,7 C 0,0 C 85 % 89 % 1012,4 hPa 0,0 l/m 0,0 km/h (0 Bft) O-NO 67 0 min 12,2 C 14,7 C 0,0 km/h (0 Bft)
30.05.2018 04:59 14,6 C 19,9 C 15,9 C 14,9 C 14,9 C 0,3 C 86 % 89 % 1012,4 hPa 0,0 l/m 0,0 km/h (0 Bft) O-SO 112 0 min 12,3 C 14,9 C 0,0 km/h (0 Bft)
30.05.2018 05:04 14,6 C 19,8 C 15,9 C 15,0 C 15,0 C 0,4 C 86 % 89 % 1012,4 hPa 0,0 l/m 0,0 km/h (0 Bft) S-SO 157 0 min 12,3 C 15,0 C 0,0 km/h (0 Bft)
30.05.2018 05:09 14,6 C 19,8 C 16,0 C 15,2 C 15,2 C 0,6 C 86 % 89 % 1012,4 hPa 0,0 l/m 0,0 km/h (0 Bft) S-SO 157 0 min 12,3 C 15,2 C 0,0 km/h (0 Bft)
30.05.2018 05:14 14,6 C 19,7 C 16,1 C 15,3 C 15,3 C 0,7 C 86 % 89 % 1012,4 hPa 0,0 l/m 0,0 km/h (0 Bft) S-SO 157 0 min 12,3 C 15,3 C 0,0 km/h (0 Bft)
30.05.2018 05:19 14,7 C 19,7 C 16,3 C 15,5 C 15,5 C 0,8 C 86 % 89 % 1012,4 hPa 0,0 l/m 0,0 km/h (0 Bft) NW 315 5 min 12,4 C 15,5 C 0,0 km/h (0 Bft)
30.05.2018 05:24 14,7 C 19,7 C 16,2 C 15,7 C 15,7 C 1,0 C 86 % 89 % 1012,4 hPa 0,0 l/m 0,0 km/h (0 Bft) S-SW 202 5 min 12,4 C 15,7 C 0,0 km/h (0 Bft)
30.05.2018 05:29 14,7 C 19,7 C 16,3 C 15,8 C 15,8 C 1,1 C 86 % 89 % 1012,4 hPa 0,0 l/m 0,0 km/h (0 Bft) O 90 5 min 12,4 C 15,8 C 0,0 km/h (0 Bft)
30.05.2018 05:34 14,6 C 19,7 C 16,4 C 16,1 C 16,1 C 1,5 C 86 % 89 % 1012,6 hPa 0,0 l/m 0,2 km/h (0 Bft) O-NO 67 5 min 12,3 C 16,1 C 1,8 km/h (1 Bft)
30.05.2018 05:39 14,9 C 19,7 C 16,6 C 16,5 C 16,5 C 1,6 C 86 % 89 % 1012,6 hPa 0,0 l/m 1,1 km/h (1 Bft) O-NO 67 5 min 12,6 C 16,5 C 2,4 km/h (1 Bft)
30.05.2018 05:44 14,9 C 19,6 C 16,8 C 16,8 C 16,8 C 1,9 C 86 % 89 % 1012,6 hPa 0,0 l/m 1,9 km/h (1 Bft) O-NO 67 5 min 12,6 C 16,8 C 3,2 km/h (1 Bft)
30.05.2018 05:49 15,3 C 19,6 C 17,1 C 17,3 C 17,3 C 2,0 C 86 % 89 % 1012,6 hPa 0,0 l/m 3,9 km/h (1 Bft) N 360 5 min 13,0 C 17,3 C 4,7 km/h (1 Bft)
30.05.2018 05:54 15,6 C 19,4 C 17,4 C 17,8 C 17,8 C 2,2 C 86 % 89 % 1012,4 hPa 0,0 l/m 3,1 km/h (1 Bft) NO 45 5 min 13,3 C 17,8 C 0,0 km/h (0 Bft)
30.05.2018 05:59 15,8 C 19,4 C 17,9 C 18,6 C 18,6 C 2,8 C 86 % 88 % 1012,4 hPa 0,0 l/m 0,5 km/h (0 Bft) S-SW 202 5 min 13,5 C 18,6 C 0,0 km/h (0 Bft)
30.05.2018 06:04 15,9 C 19,4 C 17,9 C 19,0 C 19,0 C 3,1 C 86 % 88 % 1012,4 hPa 0,0 l/m 0,0 km/h (0 Bft) W-SW 247 5 min 13,6 C 19,0 C 0,0 km/h (0 Bft)
30.05.2018 06:09 16,2 C 19,4 C 18,0 C 19,5 C 19,5 C 3,3 C 86 % 88 % 1012,4 hPa 0,0 l/m 0,0 km/h (0 Bft) W-SW 247 5 min 13,9 C 19,5 C 0,0 km/h (0 Bft)
30.05.2018 06:14 16,4 C 19,3 C 18,3 C 19,9 C 19,9 C 3,5 C 86 % 88 % 1012,6 hPa 0,0 l/m 0,0 km/h (0 Bft) W 270 5 min 14,1 C 19,9 C 0,0 km/h (0 Bft)
30.05.2018 06:19 16,7 C 19,4 C 18,5 C 20,2 C 20,2 C 3,5 C 86 % 87 % 1012,6 hPa 0,0 l/m 0,0 km/h (0 Bft) W-SW 247 5 min 14,3 C 20,2 C 0,0 km/h (0 Bft)
30.05.2018 06:24 16,9 C 19,4 C 18,7 C 20,3 C 20,3 C 3,4 C 86 % 88 % 1012,6 hPa 0,0 l/m 0,0 km/h (0 Bft) S-SW 202 5 min 14,5 C 20,3 C 0,0 km/h (0 Bft)
30.05.2018 06:29 17,2 C 19,3 C 18,8 C 20,5 C 20,5 C 3,3 C 86 % 87 % 1012,6 hPa 0,0 l/m 0,0 km/h (0 Bft) SW 225 5 min 14,8 C 20,5 C 0,0 km/h (0 Bft)
30.05.2018 06:34 17,5 C 19,3 C 18,8 C 20,6 C 20,6 C 3,1 C 85 % 87 % 1012,6 hPa 0,0 l/m 0,0 km/h (0 Bft) S-SW 202 5 min 14,9 C 20,6 C 0,0 km/h (0 Bft)
30.05.2018 06:39 17,7 C 19,3 C 18,9 C 20,7 C 20,7 C 3,0 C 85 % 87 % 1012,6 hPa 0,0 l/m 0,0 km/h (0 Bft) SW 225 5 min 15,1 C 20,7 C 0,0 km/h (0 Bft)
30.05.2018 06:44 17,9 C 19,3 C 18,9 C 20,6 C 20,6 C 2,7 C 85 % 86 % 1012,6 hPa 0,0 l/m 0,0 km/h (0 Bft) W-SW 247 5 min 15,3 C 20,6 C 0,0 km/h (0 Bft)
30.05.2018 06:49 18,2 C 19,3 C 19,0 C 20,4 C 20,4 C 2,2 C 85 % 86 % 1012,6 hPa 0,0 l/m 0,0 km/h (0 Bft) W 270 0 min 15,6 C 20,4 C 0,0 km/h (0 Bft)
30.05.2018 06:54 18,3 C 19,3 C 19,1 C 20,3 C 20,3 C 2,0 C 84 % 86 % 1013,0 hPa 0,0 l/m 0,0 km/h (0 Bft) W 270 0 min 15,5 C 20,3 C 0,0 km/h (0 Bft)
30.05.2018 06:59 18,5 C 19,3 C 19,0 C 20,3 C 20,3 C 1,8 C 84 % 86 % 1013,0 hPa 0,0 l/m 0,0 km/h (0 Bft) W 270 0 min 15,7 C 20,3 C 0,0 km/h (0 Bft)
30.05.2018 07:04 18,6 C 19,3 C 19,1 C 20,3 C 20,3 C 1,7 C 84 % 86 % 1013,0 hPa 0,0 l/m 0,0 km/h (0 Bft) W 270 0 min 15,8 C 20,3 C 0,0 km/h (0 Bft)
30.05.2018 07:09 18,8 C 19,3 C 19,3 C 20,4 C 20,4 C 1,6 C 84 % 87 % 1013,0 hPa 0,0 l/m 0,0 km/h (0 Bft) W 270 0 min 16,0 C 20,4 C 0,0 km/h (0 Bft)
30.05.2018 07:14 18,9 C 19,3 C 19,3 C 20,4 C 20,4 C 1,5 C 84 % 86 % 1013,2 hPa 0,0 l/m 0,0 km/h (0 Bft) SW 225 0 min 16,1 C 20,4 C 0,0 km/h (0 Bft)
30.05.2018 07:19 19,1 C 19,3 C 19,3 C 20,5 C 20,5 C 1,4 C 83 % 86 % 1013,2 hPa 0,0 l/m 0,0 km/h (0 Bft) W-SW 247 0 min 16,1 C 20,5 C 0,0 km/h (0 Bft)
30.05.2018 07:24 19,2 C 19,3 C 19,3 C 20,5 C 20,5 C 1,3 C 83 % 86 % 1013,2 hPa 0,0 l/m 0,0 km/h (0 Bft) O-NO 67 0 min 16,2 C 20,5 C 0,0 km/h (0 Bft)
30.05.2018 07:29 19,3 C 19,3 C 19,5 C 20,4 C 20,4 C 1,1 C 83 % 85 % 1013,2 hPa 0,0 l/m 0,2 km/h (0 Bft) O-NO 67 0 min 16,3 C 20,4 C 0,0 km/h (0 Bft)
30.05.2018 07:34 19,2 C 19,3 C 19,4 C 20,4 C 20,4 C 1,2 C 83 % 85 % 1013,2 hPa 0,0 l/m 0,2 km/h (0 Bft) O-NO 67 0 min 16,2 C 20,4 C 0,0 km/h (0 Bft)
30.05.2018 07:39 19,5 C 19,3 C 19,6 C 20,6 C 20,6 C 1,1 C 83 % 85 % 1013,2 hPa 0,0 l/m 0,0 km/h (0 Bft) O-NO 67 0 min 16,5 C 20,6 C 0,0 km/h (0 Bft)
30.05.2018 07:44 19,5 C 19,3 C 19,7 C 20,7 C 20,7 C 1,2 C 83 % 85 % 1013,2 hPa 0,0 l/m 0,0 km/h (0 Bft) O-NO 67 0 min 16,5 C 20,7 C 0,0 km/h (0 Bft)
30.05.2018 07:49 19,6 C 19,3 C 19,7 C 20,8 C 20,8 C 1,2 C 83 % 85 % 1013,2 hPa 0,0 l/m 0,0 km/h (0 Bft) O-NO 67 0 min 16,6 C 20,8 C 0,0 km/h (0 Bft)
30.05.2018 07:54 19,7 C 19,3 C 19,7 C 20,9 C 20,9 C 1,2 C 83 % 85 % 1013,5 hPa 0,0 l/m 0,0 km/h (0 Bft) O-NO 67 0 min 16,7 C 20,9 C 0,0 km/h (0 Bft)
30.05.2018 07:59 19,9 C 19,3 C 19,8 C 20,9 C 20,9 C 1,0 C 83 % 85 % 1013,5 hPa 0,0 l/m 0,0 km/h (0 Bft) O-NO 67 0 min 16,9 C 20,9 C 0,0 km/h (0 Bft)
30.05.2018 08:04 19,9 C 19,3 C 19,8 C 20,9 C 20,9 C 1,0 C 83 % 85 % 1013,5 hPa 0,0 l/m 0,0 km/h (0 Bft) O-NO 67 0 min 16,9 C 20,9 C 0,0 km/h (0 Bft)
30.05.2018 08:09 20,0 C 19,3 C 19,8 C 21,1 C 21,1 C 1,1 C 82 % 85 % 1013,5 hPa 0,0 l/m 0,0 km/h (0 Bft) SO 135 0 min 16,8 C 21,1 C 0,0 km/h (0 Bft)
30.05.2018 08:14 20,0 C 19,3 C 19,9 C 21,1 C 21,1 C 1,1 C 82 % 85 % 1013,7 hPa 0,0 l/m 0,0 km/h (0 Bft) O-NO 67 0 min 16,8 C 21,1 C 0,0 km/h (0 Bft)
30.05.2018 08:19 20,2 C 19,2 C 19,9 C 21,1 C 21,1 C 0,9 C 82 % 85 % 1013,7 hPa 0,0 l/m 0,0 km/h (0 Bft) O-NO 67 0 min 17,0 C 21,1 C 0,0 km/h (0 Bft)
30.05.2018 08:24 20,3 C 19,1 C 20,0 C 21,1 C 21,1 C 0,8 C 82 % 84 % 1013,7 hPa 0,0 l/m 0,0 km/h (0 Bft) O-NO 67 0 min 17,1 C 21,1 C 0,0 km/h (0 Bft)
30.05.2018 08:29 20,3 C 19,2 C 20,1 C 21,1 C 21,1 C 0,8 C 82 % 84 % 1013,7 hPa 0,0 l/m 0,0 km/h (0 Bft) N-NO 22 0 min 17,1 C 21,1 C 0,0 km/h (0 Bft)
30.05.2018 08:34 20,2 C 19,2 C 20,1 C 21,0 C 21,0 C 0,8 C 81 % 84 % 1013,6 hPa 0,0 l/m 0,0 km/h (0 Bft) N-NW 337 0 min 16,8 C 21,0 C 0,0 km/h (0 Bft)
30.05.2018 09:11 20,6 C 19,2 C 20,0 C 20,6 C 20,6 C 0,0 C 81 % 85 % 1013,9 hPa 0,0 l/m 0,0 km/h (0 Bft) N-NW 337 0 min 17,2 C 20,6 C 0,0 km/h (0 Bft)
30.05.2018 09:15 20,6 C 19,1 C 20,0 C 20,5 C 20,4 C 0,0 C 81 % 85 % 1014,0 hPa 0,0 l/m 0,0 km/h (0 Bft) W 270 0 min 17,2 C 20,4 C 0,0 km/h (0 Bft)
30.05.2018 09:20 20,7 C 19,2 C 20,3 C 20,6 C 20,4 C 0,0 C 82 % 86 % 1014,0 hPa 0,0 l/m 0,0 km/h (0 Bft) W-SW 247 0 min 17,5 C 20,4 C 0,0 km/h (0 Bft)
30.05.2018 09:30 20,9 C 19,2 C 20,4 C 20,9 C 20,9 C 0,0 C 81 % 86 % 1014,0 hPa 0,0 l/m 0,0 km/h (0 Bft) W-SW 247 0 min 17,5 C 20,9 C 0,0 km/h (0 Bft)
30.05.2018 09:35 20,9 C 19,2 C 20,5 C 21,1 C 21,1 C 0,2 C 81 % 86 % 1014,2 hPa 0,0 l/m 0,0 km/h (0 Bft) S-SO 157 0 min 17,5 C 21,1 C 0,0 km/h (0 Bft)
30.05.2018 09:40 21,1 C 19,1 C 20,6 C 21,8 C 21,8 C 0,7 C 81 % 85 % 1014,2 hPa 0,0 l/m 0,0 km/h (0 Bft) W-SW 247 0 min 17,7 C 21,8 C 0,0 km/h (0 Bft)
30.05.2018 09:45 21,3 C 19,2 C 20,9 C 22,5 C 22,5 C 1,2 C 81 % 85 % 1014,2 hPa 0,0 l/m 0,0 km/h (0 Bft) W-SW 247 0 min 17,9 C 22,5 C 0,0 km/h (0 Bft)
30.05.2018 09:50 21,4 C 19,2 C 21,1 C 23,1 C 23,1 C 1,7 C 81 % 85 % 1014,2 hPa 0,0 l/m 0,0 km/h (0 Bft) SO 135 0 min 18,0 C 23,1 C 0,0 km/h (0 Bft)
30.05.2018 09:55 21,5 C 19,2 C 21,2 C 23,5 C 23,5 C 2,0 C 81 % 85 % 1014,3 hPa 0,0 l/m 0,0 km/h (0 Bft) O-NO 67 0 min 18,1 C 23,5 C 0,0 km/h (0 Bft)
30.05.2018 10:00 21,7 C 19,1 C 21,3 C 24,0 C 24,0 C 2,3 C 80 % 85 % 1014,3 hPa 0,0 l/m 0,2 km/h (0 Bft) W-SW 247 0 min 18,1 C 24,0 C 0,0 km/h (0 Bft)
30.05.2018 10:05 21,9 C 19,1 C 21,6 C 24,5 C 24,5 C 2,6 C 79 % 84 % 1014,3 hPa 0,0 l/m 0,2 km/h (0 Bft) W 270 0 min 18,1 C 24,5 C 0,0 km/h (0 Bft)
30.05.2018 10:11 21,9 C 19,1 C 21,9 C 25,1 C 25,1 C 3,2 C 79 % 84 % 1014,3 hPa 0,0 l/m 0,0 km/h (0 Bft) N 0 0 min 18,1 C 25,1 C 0,0 km/h (0 Bft)
30.05.2018 10:27 22,3 C 19,1 C 22,3 C 26,4 C 26,4 C 4,1 C 79 % 83 % 1014,1 hPa 0,0 l/m 0,0 km/h (0 Bft) S 180 16 min 18,5 C 26,4 C 0,0 km/h (0 Bft)
30.05.2018 10:28 22,3 C 19,1 C 22,3 C 26,4 C 26,4 C 4,1 C 79 % 83 % 1014,1 hPa 0,0 l/m 0,0 km/h (0 Bft) S 180 1 min 18,5 C 26,4 C 0,0 km/h (0 Bft)
30.05.2018 10:40 22,7 C 19,1 C 22,8 C 27,9 C 27,9 C 5,2 C 77 % 81 % 1014,1 hPa 0,0 l/m 0,3 km/h (0 Bft) S 180 12 min 18,5 C 27,9 C 3,2 km/h (1 Bft)
30.05.2018 10:45 22,8 C 19,1 C 22,9 C 28,4 C 28,4 C 5,6 C 77 % 80 % 1014,1 hPa 0,0 l/m 0,5 km/h (0 Bft) S-SO 157 5 min 18,5 C 28,4 C 0,0 km/h (0 Bft)
30.05.2018 10:50 23,2 C 19,1 C 23,1 C 28,3 C 28,3 C 5,1 C 76 % 81 % 1014,1 hPa 0,0 l/m 0,5 km/h (0 Bft) S 180 5 min 18,7 C 28,3 C 0,0 km/h (0 Bft)
30.05.2018 10:55 23,2 C 19,2 C 23,3 C 28,4 C 28,4 C 5,2 C 76 % 80 % 1014,4 hPa 0,0 l/m 0,2 km/h (0 Bft) W-NW 292 5 min 18,7 C 28,4 C 0,0 km/h (0 Bft)
30.05.2018 11:00 23,5 C 19,1 C 23,6 C 29,2 C 29,2 C 5,7 C 75 % 79 % 1014,4 hPa 0,0 l/m 0,0 km/h (0 Bft) W-SW 247 5 min 18,8 C 29,2 C 0,0 km/h (0 Bft)
30.05.2018 11:05 23,7 C 19,1 C 23,8 C 29,9 C 29,9 C 6,2 C 74 % 78 % 1014,4 hPa 0,0 l/m 0,2 km/h (0 Bft) W 270 5 min 18,8 C 29,9 C 3,4 km/h (1 Bft)
30.05.2018 11:10 23,9 C 19,2 C 24,0 C 30,5 C 30,5 C 6,6 C 73 % 78 % 1014,4 hPa 0,0 l/m 0,5 km/h (0 Bft) S-SW 202 5 min 18,8 C 30,5 C 0,0 km/h (0 Bft)
30.05.2018 11:15 24,0 C 19,2 C 24,3 C 30,6 C 30,6 C 6,6 C 73 % 77 % 1014,2 hPa 0,0 l/m 0,8 km/h (0 Bft) SW 225 5 min 18,9 C 30,6 C 1,8 km/h (1 Bft)
30.05.2018 11:20 24,1 C 19,2 C 24,4 C 30,6 C 30,6 C 6,5 C 72 % 76 % 1014,2 hPa 0,0 l/m 1,3 km/h (1 Bft) SW 225 5 min 18,7 C 30,6 C 0,0 km/h (0 Bft)
30.05.2018 11:25 24,3 C 19,2 C 24,7 C 31,3 C 31,3 C 7,0 C 72 % 76 % 1014,2 hPa 0,0 l/m 1,1 km/h (1 Bft) S 180 5 min 18,9 C 31,3 C 3,1 km/h (1 Bft)
30.05.2018 11:30 24,6 C 19,2 C 24,9 C 31,3 C 31,3 C 6,7 C 70 % 74 % 1014,2 hPa 0,0 l/m 0,6 km/h (0 Bft) W 270 5 min 18,8 C 31,3 C 0,0 km/h (0 Bft)
30.05.2018 11:35 24,6 C 19,2 C 25,1 C 31,8 C 31,8 C 7,2 C 70 % 74 % 1014,4 hPa 0,0 l/m 1,0 km/h (0 Bft) S-SO 157 5 min 18,8 C 31,8 C 2,1 km/h (1 Bft)
30.05.2018 11:40 24,6 C 19,2 C 25,0 C 30,8 C 30,8 C 6,2 C 69 % 72 % 1014,4 hPa 0,0 l/m 1,6 km/h (1 Bft) S 180 5 min 18,5 C 30,8 C 2,1 km/h (1 Bft)
30.05.2018 11:45 24,7 C 19,2 C 25,0 C 30,6 C 30,6 C 5,9 C 69 % 72 % 1014,4 hPa 0,0 l/m 1,4 km/h (1 Bft) S 180 5 min 18,6 C 30,6 C 3,4 km/h (1 Bft)
30.05.2018 11:50 24,9 C 19,2 C 25,1 C 30,3 C 30,3 C 5,4 C 69 % 73 % 1014,4 hPa 0,0 l/m 0,6 km/h (0 Bft) SW 225 5 min 18,8 C 30,3 C 2,7 km/h (1 Bft)
30.05.2018 11:55 24,9 C 19,2 C 25,0 C 30,0 C 30,0 C 5,1 C 69 % 73 % 1014,7 hPa 0,0 l/m 0,6 km/h (0 Bft) SW 225 5 min 18,8 C 30,0 C 0,0 km/h (0 Bft)
30.05.2018 12:00 24,9 C 19,2 C 25,1 C 29,7 C 29,7 C 4,8 C 69 % 72 % 1014,7 hPa 0,0 l/m 1,0 km/h (0 Bft) S-SW 202 5 min 18,8 C 29,7 C 1,8 km/h (1 Bft)
30.05.2018 12:05 24,8 C 19,2 C 25,1 C 29,4 C 29,4 C 4,6 C 68 % 71 % 1014,7 hPa 0,0 l/m 0,6 km/h (0 Bft) W-SW 247 5 min 18,5 C 29,4 C 0,0 km/h (0 Bft)
30.05.2018 12:11 24,8 C 19,1 C 25,3 C 30,0 C 30,0 C 5,2 C 68 % 71 % 1014,7 hPa 0,0 l/m 0,6 km/h (0 Bft) N 0 6 min 18,5 C 30,0 C 0,0 km/h (0 Bft)
30.05.2018 12:27 25,0 C 19,1 C 25,4 C 30,5 C 30,5 C 5,5 C 68 % 70 % 1014,8 hPa 0,0 l/m 0,3 km/h (0 Bft) S-SW 202 16 min 18,7 C 30,5 C 0,0 km/h (0 Bft)
30.05.2018 12:28 25,0 C 19,1 C 25,4 C 30,5 C 30,5 C 5,5 C 68 % 70 % 1014,8 hPa 0,0 l/m 0,3 km/h (0 Bft) S-SW 202 1 min 18,7 C 30,5 C 0,0 km/h (0 Bft)
30.05.2018 12:40 26,4 C 19,2 C 26,3 C 33,8 C 33,8 C 7,4 C 65 % 69 % 1014,6 hPa 0,0 l/m 1,4 km/h (1 Bft) W-SW 247 12 min 19,3 C 33,8 C 1,9 km/h (1 Bft)
30.05.2018 12:45 26,5 C 19,2 C 26,5 C 34,1 C 34,1 C 7,6 C 64 % 67 % 1014,6 hPa 0,0 l/m 1,3 km/h (1 Bft) O 90 5 min 19,1 C 34,1 C 0,0 km/h (0 Bft)
30.05.2018 12:50 27,3 C 19,2 C 27,0 C 35,4 C 35,4 C 8,1 C 63 % 67 % 1014,6 hPa 0,0 l/m 1,3 km/h (1 Bft) SW 225 5 min 19,6 C 35,4 C 0,0 km/h (0 Bft)
30.05.2018 12:55 27,7 C 19,2 C 27,3 C 36,1 C 36,1 C 8,4 C 62 % 66 % 1014,5 hPa 0,0 l/m 1,4 km/h (1 Bft) SO 135 5 min 19,7 C 36,1 C 0,0 km/h (0 Bft)
30.05.2018 13:00 27,7 C 19,2 C 27,5 C 36,4 C 36,4 C 8,7 C 61 % 65 % 1014,5 hPa 0,0 l/m 1,4 km/h (1 Bft) W-SW 247 5 min 19,5 C 36,4 C 2,6 km/h (1 Bft)
30.05.2018 13:05 27,9 C 19,3 C 27,5 C 36,3 C 36,3 C 8,4 C 60 % 64 % 1014,5 hPa 0,0 l/m 1,4 km/h (1 Bft) W 270 5 min 19,4 C 36,3 C 5,8 km/h (2 Bft)
30.05.2018 13:10 27,2 C 19,2 C 27,1 C 35,0 C 35,0 C 7,8 C 60 % 64 % 1014,5 hPa 0,0 l/m 2,9 km/h (1 Bft) NO 45 5 min 18,7 C 35,0 C 2,9 km/h (1 Bft)
30.05.2018 13:15 27,1 C 19,2 C 27,2 C 34,1 C 34,1 C 7,0 C 61 % 64 % 1014,4 hPa 0,0 l/m 3,7 km/h (1 Bft) N 360 5 min 18,9 C 34,1 C 3,7 km/h (1 Bft)
30.05.2018 13:20 26,9 C 19,2 C 27,0 C 33,3 C 33,3 C 6,4 C 61 % 63 % 1014,4 hPa 0,0 l/m 2,7 km/h (1 Bft) O-NO 67 5 min 18,7 C 33,3 C 3,5 km/h (1 Bft)
30.05.2018 13:25 26,8 C 19,3 C 26,7 C 32,1 C 32,1 C 5,3 C 62 % 64 % 1014,4 hPa 0,0 l/m 2,3 km/h (1 Bft) NO 45 5 min 18,9 C 32,1 C 9,5 km/h (2 Bft)
30.05.2018 13:30 27,1 C 19,2 C 26,8 C 32,7 C 32,7 C 5,6 C 62 % 65 % 1014,4 hPa 0,0 l/m 2,4 km/h (1 Bft) W-NW 292 5 min 19,2 C 32,7 C 2,4 km/h (1 Bft)
30.05.2018 13:35 27,5 C 19,2 C 27,1 C 33,7 C 33,7 C 6,2 C 61 % 63 % 1014,5 hPa 0,0 l/m 2,3 km/h (1 Bft) O-SO 112 5 min 19,3 C 33,7 C 3,1 km/h (1 Bft)
30.05.2018 13:40 27,5 C 19,3 C 26,9 C 33,6 C 33,6 C 6,1 C 59 % 63 % 1014,5 hPa 0,0 l/m 2,4 km/h (1 Bft) O-NO 67 5 min 18,8 C 33,6 C 7,9 km/h (2 Bft)
30.05.2018 13:45 27,2 C 19,3 C 26,9 C 33,2 C 33,2 C 6,0 C 59 % 63 % 1014,5 hPa 0,0 l/m 2,7 km/h (1 Bft) N-NW 337 5 min 18,5 C 33,2 C 3,9 km/h (1 Bft)
30.05.2018 13:50 27,2 C 19,3 C 27,0 C 33,4 C 33,4 C 6,2 C 59 % 63 % 1014,5 hPa 0,0 l/m 3,4 km/h (1 Bft) W-SW 247 5 min 18,5 C 33,4 C 6,1 km/h (2 Bft)
30.05.2018 13:55 27,1 C 19,3 C 27,3 C 32,8 C 32,8 C 5,7 C 58 % 61 % 1014,3 hPa 0,0 l/m 3,7 km/h (1 Bft) W-NW 292 5 min 18,1 C 32,8 C 5,0 km/h (1 Bft)
30.05.2018 14:00 27,3 C 19,3 C 28,0 C 33,2 C 33,2 C 5,9 C 59 % 60 % 1014,3 hPa 0,0 l/m 2,6 km/h (1 Bft) O 90 5 min 18,6 C 33,2 C 2,4 km/h (1 Bft)
30.05.2018 14:05 27,5 C 19,3 C 28,3 C 33,5 C 33,5 C 6,0 C 58 % 59 % 1014,3 hPa 0,0 l/m 2,1 km/h (1 Bft) W-SW 247 5 min 18,5 C 33,5 C 3,1 km/h (1 Bft)
30.05.2018 14:11 27,6 C 19,4 C 28,5 C 33,9 C 33,9 C 6,3 C 58 % 57 % 1014,3 hPa 0,0 l/m 2,3 km/h (1 Bft) N 0 6 min 18,6 C 33,9 C 4,8 km/h (1 Bft)
30.05.2018 14:27 26,9 C 19,4 C 27,5 C 32,5 C 32,5 C 5,6 C 57 % 58 % 1014,2 hPa 0,0 l/m 3,5 km/h (1 Bft) O-NO 67 16 min 17,6 C 32,5 C 10,0 km/h (2 Bft)
30.05.2018 14:28 26,9 C 19,4 C 27,5 C 32,5 C 32,5 C 5,6 C 57 % 58 % 1014,2 hPa 0,0 l/m 3,5 km/h (1 Bft) O-NO 67 1 min 17,6 C 32,5 C 3,7 km/h (1 Bft)
30.05.2018 14:40 27,4 C 19,5 C 27,7 C 34,0 C 34,0 C 6,6 C 58 % 60 % 1014,2 hPa 0,0 l/m 2,7 km/h (1 Bft) N-NO 22 12 min 18,4 C 34,0 C 2,4 km/h (1 Bft)
30.05.2018 14:45 27,8 C 19,5 C 28,1 C 34,7 C 34,7 C 6,9 C 56 % 60 % 1014,2 hPa 0,0 l/m 2,9 km/h (1 Bft) NO 45 5 min 18,2 C 34,7 C 4,8 km/h (1 Bft)
30.05.2018 14:50 27,4 C 19,5 C 28,1 C 34,2 C 34,2 C 6,8 C 57 % 58 % 1014,2 hPa 0,0 l/m 3,9 km/h (1 Bft) O-NO 67 5 min 18,1 C 34,2 C 2,6 km/h (1 Bft)
30.05.2018 14:55 27,5 C 19,5 C 27,9 C 34,2 C 34,2 C 6,7 C 57 % 58 % 1014,2 hPa 0,0 l/m 3,9 km/h (1 Bft) NW 315 5 min 18,2 C 34,2 C 3,1 km/h (1 Bft)
30.05.2018 15:00 27,8 C 19,5 C 27,8 C 34,0 C 34,0 C 6,2 C 57 % 59 % 1014,2 hPa 0,0 l/m 3,2 km/h (1 Bft) N-NO 22 5 min 18,5 C 34,0 C 4,8 km/h (1 Bft)
30.05.2018 15:05 27,6 C 19,5 C 27,8 C 33,4 C 33,4 C 5,8 C 57 % 59 % 1014,2 hPa 0,0 l/m 3,2 km/h (1 Bft) NO 45 5 min 18,3 C 33,4 C 6,3 km/h (2 Bft)
30.05.2018 15:10 27,7 C 19,6 C 28,1 C 33,7 C 33,7 C 6,0 C 57 % 59 % 1014,2 hPa 0,0 l/m 3,2 km/h (1 Bft) W 270 5 min 18,4 C 33,7 C 3,5 km/h (1 Bft)
30.05.2018 15:15 27,9 C 19,6 C 28,0 C 34,0 C 34,0 C 6,1 C 56 % 58 % 1013,8 hPa 0,0 l/m 3,4 km/h (1 Bft) N-NO 22 5 min 18,3 C 34,0 C 7,1 km/h (2 Bft)
30.05.2018 15:20 27,6 C 19,6 C 28,0 C 33,1 C 33,1 C 5,5 C 55 % 59 % 1013,8 hPa 0,0 l/m 5,1 km/h (1 Bft) NO 45 5 min 17,7 C 33,1 C 9,8 km/h (2 Bft)
30.05.2018 15:25 27,5 C 19,6 C 28,0 C 32,4 C 32,4 C 4,9 C 55 % 59 % 1013,8 hPa 0,0 l/m 6,4 km/h (2 Bft) O-NO 67 5 min 17,6 C 32,4 C 11,4 km/h (2 Bft)
30.05.2018 15:30 27,3 C 19,6 C 27,7 C 31,3 C 31,3 C 4,0 C 55 % 58 % 1013,8 hPa 0,0 l/m 6,3 km/h (2 Bft) O-NO 67 5 min 17,4 C 31,3 C 10,3 km/h (2 Bft)
30.05.2018 15:35 27,1 C 19,6 C 27,2 C 30,1 C 30,1 C 3,0 C 57 % 60 % 1013,8 hPa 0,0 l/m 5,8 km/h (2 Bft) O-SO 112 0 min 17,8 C 30,1 C 11,4 km/h (2 Bft)
30.05.2018 15:40 26,8 C 19,6 C 26,9 C 28,8 C 28,8 C 2,0 C 59 % 62 % 1013,8 hPa 0,0 l/m 5,1 km/h (1 Bft) N-NO 22 0 min 18,1 C 28,8 C 4,5 km/h (1 Bft)
30.05.2018 15:45 26,7 C 19,6 C 27,2 C 29,0 C 29,0 C 2,3 C 60 % 62 % 1013,8 hPa 0,0 l/m 4,8 km/h (1 Bft) O-NO 67 0 min 18,3 C 29,0 C 12,1 km/h (2 Bft)
30.05.2018 15:50 26,9 C 19,7 C 27,5 C 30,4 C 30,4 C 3,5 C 59 % 62 % 1013,8 hPa 0,0 l/m 5,1 km/h (1 Bft) O-NO 67 5 min 18,2 C 30,4 C 5,1 km/h (1 Bft)
30.05.2018 15:55 26,9 C 19,7 C 27,5 C 30,7 C 30,7 C 3,8 C 60 % 62 % 1013,4 hPa 0,0 l/m 6,0 km/h (2 Bft) NO 45 5 min 18,5 C 30,7 C 6,3 km/h (2 Bft)
30.05.2018 16:00 27,1 C 19,7 C 27,7 C 31,6 C 31,6 C 4,5 C 61 % 62 % 1013,4 hPa 0,0 l/m 4,5 km/h (1 Bft) O-NO 67 5 min 18,9 C 31,6 C 3,2 km/h (1 Bft)
30.05.2018 16:05 27,1 C 19,7 C 27,6 C 32,4 C 32,4 C 5,3 C 60 % 62 % 1013,4 hPa 0,0 l/m 2,9 km/h (1 Bft) NO 45 5 min 18,6 C 32,4 C 3,7 km/h (1 Bft)
30.05.2018 16:11 27,1 C 19,7 C 27,8 C 32,5 C 32,5 C 5,4 C 58 % 60 % 1013,4 hPa 0,0 l/m 3,7 km/h (1 Bft) N 0 6 min 18,1 C 32,5 C 4,2 km/h (1 Bft)
30.05.2018 16:27 27,3 C 19,7 C 28,1 C 33,0 C 33,0 C 5,7 C 60 % 60 % 1013,5 hPa 0,0 l/m 1,0 km/h (0 Bft) NO 45 16 min 18,8 C 33,0 C 2,7 km/h (1 Bft)
30.05.2018 16:40 26,9 C 19,8 C 27,4 C 32,2 C 32,2 C 5,3 C 58 % 60 % 1013,4 hPa 0,0 l/m 2,1 km/h (1 Bft) NO 45 13 min 17,9 C 32,2 C 2,6 km/h (1 Bft)
30.05.2018 16:45 26,8 C 19,8 C 27,3 C 31,2 C 31,2 C 4,4 C 58 % 60 % 1013,4 hPa 0,0 l/m 3,2 km/h (1 Bft) N-NO 22 5 min 17,8 C 31,2 C 5,0 km/h (1 Bft)
30.05.2018 16:50 26,6 C 19,8 C 27,3 C 30,6 C 30,6 C 4,0 C 58 % 60 % 1013,4 hPa 0,0 l/m 3,5 km/h (1 Bft) O-NO 67 5 min 17,6 C 30,6 C 0,0 km/h (0 Bft)
30.05.2018 16:55 26,7 C 19,8 C 27,5 C 31,1 C 31,1 C 4,4 C 57 % 59 % 1013,6 hPa 0,0 l/m 3,5 km/h (1 Bft) O-NO 67 5 min 17,5 C 31,1 C 5,6 km/h (1 Bft)
30.05.2018 17:00 26,8 C 19,8 C 27,6 C 31,6 C 31,6 C 4,8 C 58 % 59 % 1013,6 hPa 0,0 l/m 2,7 km/h (1 Bft) O-NO 67 5 min 17,8 C 31,6 C 4,0 km/h (1 Bft)
30.05.2018 17:05 26,8 C 19,8 C 27,5 C 31,6 C 31,6 C 4,8 C 56 % 58 % 1013,6 hPa 0,0 l/m 3,2 km/h (1 Bft) N-NO 22 5 min 17,3 C 31,6 C 3,4 km/h (1 Bft)
30.05.2018 17:10 27,1 C 19,8 C 27,6 C 32,6 C 32,6 C 5,5 C 56 % 58 % 1013,6 hPa 0,0 l/m 2,1 km/h (1 Bft) S 180 5 min 17,5 C 32,6 C 3,5 km/h (1 Bft)
30.05.2018 17:15 27,1 C 19,8 C 27,5 C 32,9 C 32,9 C 5,8 C 55 % 58 % 1013,4 hPa 0,0 l/m 1,8 km/h (1 Bft) O 90 5 min 17,3 C 32,9 C 4,7 km/h (1 Bft)
30.05.2018 17:20 26,8 C 19,8 C 26,8 C 31,1 C 31,1 C 4,3 C 54 % 56 % 1013,4 hPa 0,0 l/m 3,4 km/h (1 Bft) O-NO 67 5 min 16,7 C 31,1 C 2,1 km/h (1 Bft)
30.05.2018 17:25 26,6 C 19,9 C 26,8 C 30,4 C 30,4 C 3,8 C 54 % 58 % 1013,4 hPa 0,0 l/m 2,6 km/h (1 Bft) O-NO 67 5 min 16,5 C 30,4 C 0,0 km/h (0 Bft)
30.05.2018 17:30 26,7 C 19,9 C 26,9 C 31,2 C 31,2 C 4,5 C 54 % 58 % 1013,4 hPa 0,0 l/m 1,4 km/h (1 Bft) NO 45 5 min 16,6 C 31,2 C 5,5 km/h (1 Bft)
30.05.2018 17:35 26,7 C 19,9 C 26,8 C 31,4 C 31,4 C 4,7 C 54 % 57 % 1013,1 hPa 0,0 l/m 2,9 km/h (1 Bft) O-NO 67 5 min 16,6 C 31,4 C 5,5 km/h (1 Bft)
30.05.2018 17:40 26,5 C 19,9 C 26,4 C 30,0 C 30,0 C 3,5 C 55 % 59 % 1013,1 hPa 0,0 l/m 4,0 km/h (1 Bft) O-NO 67 5 min 16,7 C 30,0 C 5,1 km/h (1 Bft)
30.05.2018 17:45 26,5 C 19,9 C 26,3 C 29,7 C 29,7 C 3,2 C 56 % 60 % 1013,1 hPa 0,0 l/m 3,9 km/h (1 Bft) O-NO 67 0 min 17,0 C 29,7 C 3,2 km/h (1 Bft)
30.05.2018 17:50 26,4 C 19,9 C 26,5 C 29,5 C 29,5 C 3,1 C 56 % 61 % 1013,1 hPa 0,0 l/m 3,1 km/h (1 Bft) NO 45 0 min 16,9 C 29,5 C 4,3 km/h (1 Bft)
30.05.2018 17:55 26,4 C 19,9 C 26,5 C 30,2 C 30,2 C 3,8 C 56 % 60 % 1013,0 hPa 0,0 l/m 2,9 km/h (1 Bft) NO 45 5 min 16,9 C 30,2 C 6,4 km/h (2 Bft)
30.05.2018 18:00 26,5 C 19,9 C 26,5 C 30,7 C 30,7 C 4,2 C 55 % 59 % 1013,0 hPa 0,0 l/m 4,0 km/h (1 Bft) O-NO 67 5 min 16,7 C 30,7 C 4,5 km/h (1 Bft)
30.05.2018 18:05 26,5 C 19,9 C 26,7 C 30,8 C 30,8 C 4,3 C 54 % 58 % 1013,0 hPa 0,0 l/m 4,3 km/h (1 Bft) O 90 5 min 16,4 C 30,8 C 2,1 km/h (1 Bft)
30.05.2018 18:11 26,6 C 19,9 C 26,6 C 31,5 C 31,5 C 4,9 C 54 % 58 % 1013,0 hPa 0,0 l/m 2,6 km/h (1 Bft) N 0 6 min 16,5 C 31,5 C 5,1 km/h (1 Bft)
30.05.2018 18:27 26,7 C 19,9 C 26,5 C 31,4 C 31,4 C 4,7 C 52 % 55 % 1013,0 hPa 0,0 l/m 3,9 km/h (1 Bft) O-NO 67 16 min 16,0 C 31,4 C 3,2 km/h (1 Bft)
30.05.2018 18:28 26,7 C 19,9 C 26,5 C 31,4 C 31,4 C 4,7 C 52 % 55 % 1013,0 hPa 0,0 l/m 3,9 km/h (1 Bft) O-NO 67 1 min 16,0 C 31,4 C 3,2 km/h (1 Bft)
30.05.2018 18:40 26,8 C 20,1 C 26,6 C 31,8 C 31,8 C 5,0 C 52 % 55 % 1013,1 hPa 0,0 l/m 2,3 km/h (1 Bft) O-NO 67 12 min 16,1 C 31,8 C 0,0 km/h (0 Bft)
30.05.2018 18:45 26,9 C 20,0 C 26,7 C 32,1 C 32,1 C 5,2 C 52 % 55 % 1013,1 hPa 0,0 l/m 1,8 km/h (1 Bft) O 90 5 min 16,2 C 32,1 C 0,0 km/h (0 Bft)
30.05.2018 18:50 26,9 C 20,1 C 26,7 C 32,5 C 32,5 C 5,6 C 52 % 55 % 1013,1 hPa 0,0 l/m 1,0 km/h (0 Bft) O-NO 67 5 min 16,2 C 32,5 C 3,7 km/h (1 Bft)
30.05.2018 18:55 26,9 C 20,1 C 26,6 C 32,4 C 32,4 C 5,5 C 52 % 56 % 1013,0 hPa 0,0 l/m 1,6 km/h (1 Bft) NO 45 5 min 16,2 C 32,4 C 5,1 km/h (1 Bft)
30.05.2018 19:00 26,8 C 20,1 C 26,6 C 32,1 C 32,1 C 5,3 C 52 % 56 % 1013,0 hPa 0,0 l/m 2,1 km/h (1 Bft) NO 45 5 min 16,1 C 32,1 C 2,6 km/h (1 Bft)
30.05.2018 19:05 26,8 C 20,1 C 26,5 C 31,6 C 31,6 C 4,8 C 53 % 57 % 1013,0 hPa 0,0 l/m 2,1 km/h (1 Bft) O-NO 67 5 min 16,4 C 31,6 C 2,7 km/h (1 Bft)
30.05.2018 19:10 26,8 C 20,1 C 26,6 C 31,4 C 31,4 C 4,6 C 52 % 56 % 1013,0 hPa 0,0 l/m 1,3 km/h (1 Bft) O-NO 67 5 min 16,1 C 31,4 C 1,6 km/h (1 Bft)
30.05.2018 19:15 26,9 C 20,1 C 26,5 C 31,6 C 31,6 C 4,7 C 52 % 57 % 1013,1 hPa 0,0 l/m 1,4 km/h (1 Bft) O-NO 67 5 min 16,2 C 31,6 C 2,1 km/h (1 Bft)
30.05.2018 19:20 26,9 C 20,1 C 26,5 C 31,5 C 31,5 C 4,6 C 53 % 57 % 1013,1 hPa 0,0 l/m 1,6 km/h (1 Bft) O-NO 67 5 min 16,5 C 31,5 C 1,8 km/h (1 Bft)
30.05.2018 19:25 27,0 C 20,1 C 26,4 C 31,6 C 31,6 C 4,6 C 53 % 58 % 1013,1 hPa 0,0 l/m 1,1 km/h (1 Bft) N 360 5 min 16,6 C 31,6 C 0,0 km/h (0 Bft)
30.05.2018 19:30 27,0 C 20,1 C 26,4 C 31,8 C 31,8 C 4,8 C 53 % 59 % 1013,1 hPa 0,0 l/m 0,5 km/h (0 Bft) O-NO 67 5 min 16,6 C 31,8 C 1,8 km/h (1 Bft)
30.05.2018 19:35 27,1 C 20,1 C 26,4 C 31,8 C 31,8 C 4,7 C 53 % 58 % 1013,0 hPa 0,0 l/m 0,3 km/h (0 Bft) N-NO 22 5 min 16,7 C 31,8 C 0,0 km/h (0 Bft)
30.05.2018 19:40 27,1 C 20,1 C 26,4 C 31,7 C 31,7 C 4,6 C 52 % 57 % 1013,0 hPa 0,0 l/m 0,2 km/h (0 Bft) O-NO 67 5 min 16,4 C 31,7 C 0,0 km/h (0 Bft)
30.05.2018 19:45 27,1 C 20,1 C 26,3 C 31,6 C 31,6 C 4,5 C 52 % 57 % 1013,0 hPa 0,0 l/m 0,2 km/h (0 Bft) O-SO 112 5 min 16,4 C 31,6 C 0,0 km/h (0 Bft)
30.05.2018 19:50 27,1 C 20,1 C 26,2 C 31,2 C 31,2 C 4,1 C 52 % 58 % 1013,0 hPa 0,0 l/m 0,6 km/h (0 Bft) O-NO 67 5 min 16,4 C 31,2 C 2,1 km/h (1 Bft)
30.05.2018 19:55 26,9 C 20,1 C 26,0 C 30,7 C 30,7 C 3,8 C 53 % 59 % 1012,9 hPa 0,0 l/m 1,0 km/h (0 Bft) O-NO 67 5 min 16,5 C 30,7 C 1,6 km/h (1 Bft)
30.05.2018 20:00 26,7 C 20,1 C 25,7 C 29,2 C 29,2 C 2,5 C 54 % 60 % 1012,9 hPa 0,0 l/m 0,6 km/h (0 Bft) N-NO 22 5 min 16,6 C 29,2 C 0,0 km/h (0 Bft)
30.05.2018 20:05 26,6 C 20,2 C 25,5 C 28,4 C 28,4 C 1,8 C 55 % 61 % 1012,9 hPa 0,0 l/m 0,3 km/h (0 Bft) NW 315 5 min 16,8 C 28,4 C 3,2 km/h (1 Bft)
30.05.2018 20:11 26,0 C 20,2 C 25,3 C 26,9 C 26,9 C 0,9 C 57 % 62 % 1012,9 hPa 0,0 l/m 3,1 km/h (1 Bft) N 0 0 min 16,8 C 26,9 C 15,9 km/h (3 Bft)
30.05.2018 20:27 23,7 C 20,1 C 23,2 C 23,5 C 23,2 C 0,0 C 63 % 68 % 1013,6 hPa 0,0 l/m 3,5 km/h (1 Bft) O-SO 112 0 min 16,2 C 23,2 C 23,0 km/h (4 Bft)
30.05.2018 20:28 23,7 C 20,1 C 23,2 C 23,5 C 23,2 C 0,0 C 63 % 68 % 1013,6 hPa 0,0 l/m 3,5 km/h (1 Bft) O-SO 112 0 min 16,2 C 23,2 C 2,6 km/h (1 Bft)
30.05.2018 20:40 22,7 C 20,1 C 22,4 C 22,3 C 21,6 C 0,0 C 67 % 71 % 1013,5 hPa 0,0 l/m 2,4 km/h (1 Bft) O-NO 67 0 min 16,2 C 21,6 C 4,0 km/h (1 Bft)
30.05.2018 20:45 22,4 C 20,1 C 22,1 C 22,1 C 21,4 C 0,0 C 67 % 72 % 1013,5 hPa 0,0 l/m 2,6 km/h (1 Bft) O-NO 67 0 min 16,0 C 21,4 C 2,1 km/h (1 Bft)
30.05.2018 20:50 22,1 C 20,1 C 22,0 C 21,8 C 21,1 C 0,0 C 69 % 73 % 1013,5 hPa 0,0 l/m 3,4 km/h (1 Bft) O-NO 67 0 min 16,1 C 21,1 C 4,3 km/h (1 Bft)
30.05.2018 20:55 21,8 C 20,1 C 21,8 C 21,5 C 20,9 C 0,0 C 69 % 73 % 1013,8 hPa 0,0 l/m 3,5 km/h (1 Bft) O-NO 67 0 min 15,9 C 20,9 C 5,6 km/h (1 Bft)
30.05.2018 21:00 21,7 C 20,1 C 21,4 C 21,4 C 20,7 C 0,0 C 70 % 74 % 1013,8 hPa 0,0 l/m 4,3 km/h (1 Bft) O 90 0 min 16,0 C 20,7 C 3,7 km/h (1 Bft)
30.05.2018 21:05 21,5 C 20,1 C 21,5 C 21,2 C 20,7 C 0,0 C 71 % 75 % 1013,8 hPa 0,0 l/m 4,5 km/h (1 Bft) O-NO 67 0 min 16,0 C 20,7 C 5,8 km/h (2 Bft)
30.05.2018 21:10 21,3 C 20,1 C 21,2 C 21,1 C 20,6 C 0,0 C 72 % 75 % 1013,8 hPa 0,0 l/m 3,4 km/h (1 Bft) O 90 0 min 16,0 C 20,6 C 2,3 km/h (1 Bft)
30.05.2018 21:15 21,2 C 20,1 C 21,2 C 20,9 C 20,4 C 0,0 C 72 % 75 % 1013,5 hPa 0,0 l/m 2,6 km/h (1 Bft) O 90 0 min 15,9 C 20,4 C 0,0 km/h (0 Bft)
30.05.2018 21:20 21,1 C 20,1 C 21,1 C 20,8 C 20,3 C 0,0 C 72 % 75 % 1013,5 hPa 0,0 l/m 0,6 km/h (0 Bft) W 270 0 min 15,8 C 20,3 C 0,0 km/h (0 Bft)
30.05.2018 21:25 21,0 C 20,1 C 21,1 C 20,7 C 20,1 C 0,0 C 72 % 76 % 1013,5 hPa 0,0 l/m 0,0 km/h (0 Bft) SW 225 0 min 15,8 C 20,1 C 0,0 km/h (0 Bft)
30.05.2018 21:30 21,0 C 20,1 C 20,9 C 20,7 C 20,0 C 0,0 C 73 % 76 % 1013,5 hPa 0,0 l/m 0,0 km/h (0 Bft) W-NW 292 0 min 16,0 C 20,0 C 0,0 km/h (0 Bft)
30.05.2018 21:35 20,9 C 20,2 C 20,8 C 20,6 C 19,9 C 0,0 C 73 % 76 % 1013,8 hPa 0,0 l/m 0,0 km/h (0 Bft) O-NO 67 0 min 15,9 C 19,9 C 0,0 km/h (0 Bft)
30.05.2018 21:40 20,8 C 20,2 C 20,7 C 20,5 C 19,9 C 0,0 C 74 % 77 % 1013,8 hPa 0,0 l/m 0,2 km/h (0 Bft) NO 45 0 min 16,0 C 19,9 C 0,0 km/h (0 Bft)
30.05.2018 21:45 20,7 C 20,2 C 20,7 C 20,4 C 19,8 C 0,0 C 74 % 77 % 1013,8 hPa 0,0 l/m 0,2 km/h (0 Bft) NO 45 0 min 15,9 C 19,8 C 0,0 km/h (0 Bft)
30.05.2018 21:50 20,7 C 20,2 C 20,4 C 20,4 C 19,7 C 0,0 C 74 % 78 % 1013,8 hPa 0,0 l/m 0,5 km/h (0 Bft) NO 45 0 min 15,9 C 19,7 C 1,9 km/h (1 Bft)
30.05.2018 21:55 20,5 C 20,2 C 20,4 C 20,2 C 19,6 C 0,0 C 74 % 78 % 1013,6 hPa 0,0 l/m 0,6 km/h (0 Bft) O-NO 67 0 min 15,7 C 19,6 C 1,8 km/h (1 Bft)
30.05.2018 22:00 20,4 C 20,1 C 20,3 C 20,1 C 19,5 C 0,0 C 75 % 78 % 1013,6 hPa 0,0 l/m 0,3 km/h (0 Bft) O-NO 67 0 min 15,8 C 19,5 C 0,0 km/h (0 Bft)
30.05.2018 22:05 20,4 C 20,1 C 20,0 C 20,0 C 19,3 C 0,0 C 75 % 78 % 1013,6 hPa 0,0 l/m 0,2 km/h (0 Bft) NW 315 0 min 15,8 C 19,3 C 0,0 km/h (0 Bft)
30.05.2018 22:11 20,2 C 20,1 C 20,0 C 19,8 C 19,0 C 0,0 C 75 % 79 % 1013,6 hPa 0,0 l/m 0,0 km/h (0 Bft) N 0 0 min 15,6 C 19,0 C 0,0 km/h (0 Bft)
30.05.2018 22:27 20,0 C 20,1 C 19,6 C 19,5 C 18,6 C 0,0 C 76 % 80 % 1013,4 hPa 0,0 l/m 0,0 km/h (0 Bft) W-NW 292 0 min 15,6 C 18,6 C 0,0 km/h (0 Bft)
30.05.2018 22:28 20,0 C 20,1 C 19,6 C 19,5 C 18,6 C 0,0 C 76 % 80 % 1013,4 hPa 0,0 l/m 0,0 km/h (0 Bft) W-NW 292 0 min 15,6 C 18,6 C 0,0 km/h (0 Bft)
30.05.2018 22:40 19,7 C 20,1 C 19,3 C 19,2 C 18,3 C 0,0 C 78 % 81 % 1013,6 hPa 0,0 l/m 0,0 km/h (0 Bft) NW 315 0 min 15,8 C 18,3 C 0,0 km/h (0 Bft)
30.05.2018 22:45 19,6 C 20,1 C 19,3 C 19,1 C 18,1 C 0,0 C 78 % 81 % 1013,6 hPa 0,0 l/m 0,0 km/h (0 Bft) NW 315 0 min 15,7 C 18,1 C 0,0 km/h (0 Bft)
30.05.2018 22:50 19,5 C 20,1 C 19,2 C 19,0 C 17,9 C 0,0 C 78 % 82 % 1013,6 hPa 0,0 l/m 0,0 km/h (0 Bft) W-NW 292 0 min 15,6 C 17,9 C 0,0 km/h (0 Bft)
30.05.2018 22:55 19,5 C 20,1 C 19,1 C 18,9 C 17,8 C 0,0 C 78 % 82 % 1013,5 hPa 0,0 l/m 0,0 km/h (0 Bft) W-SW 247 0 min 15,6 C 17,8 C 0,0 km/h (0 Bft)
30.05.2018 23:00 19,3 C 20,1 C 18,9 C 18,7 C 17,6 C 0,0 C 78 % 82 % 1013,5 hPa 0,0 l/m 0,0 km/h (0 Bft) S 180 0 min 15,4 C 17,6 C 0,0 km/h (0 Bft)
30.05.2018 23:05 19,3 C 20,1 C 18,9 C 18,7 C 17,5 C 0,0 C 78 % 83 % 1013,5 hPa 0,0 l/m 0,0 km/h (0 Bft) W 270 0 min 15,4 C 17,5 C 0,0 km/h (0 Bft)
30.05.2018 23:10 19,1 C 20,1 C 18,9 C 18,5 C 17,4 C 0,0 C 79 % 83 % 1013,5 hPa 0,0 l/m 0,0 km/h (0 Bft) W 270 0 min 15,4 C 17,4 C 0,0 km/h (0 Bft)
30.05.2018 23:15 19,0 C 20,1 C 18,7 C 18,5 C 17,4 C 0,0 C 79 % 83 % 1013,7 hPa 0,0 l/m 0,0 km/h (0 Bft) W 270 0 min 15,3 C 17,4 C 0,0 km/h (0 Bft)
30.05.2018 23:20 18,9 C 20,1 C 18,7 C 18,4 C 17,3 C 0,0 C 80 % 84 % 1013,7 hPa 0,0 l/m 0,0 km/h (0 Bft) W 270 0 min 15,4 C 17,3 C 0,0 km/h (0 Bft)
30.05.2018 23:25 18,9 C 20,1 C 18,5 C 18,3 C 17,2 C 0,0 C 80 % 84 % 1013,7 hPa 0,0 l/m 0,0 km/h (0 Bft) NO 45 0 min 15,4 C 17,2 C 0,0 km/h (0 Bft)
30.05.2018 23:30 18,7 C 20,1 C 18,4 C 18,2 C 17,3 C 0,0 C 80 % 84 % 1013,7 hPa 0,0 l/m 0,0 km/h (0 Bft) O-NO 67 0 min 15,2 C 17,3 C 0,0 km/h (0 Bft)
30.05.2018 23:35 18,7 C 20,1 C 18,3 C 18,2 C 17,3 C 0,0 C 81 % 84 % 1013,4 hPa 0,0 l/m 0,0 km/h (0 Bft) O-NO 67 0 min 15,4 C 17,3 C 0,0 km/h (0 Bft)
30.05.2018 23:40 18,5 C 20,1 C 18,3 C 18,1 C 17,3 C 0,0 C 82 % 85 % 1013,4 hPa 0,0 l/m 0,0 km/h (0 Bft) NO 45 0 min 15,4 C 17,3 C 0,0 km/h (0 Bft)
30.05.2018 23:45 18,4 C 20,1 C 18,1 C 18,0 C 17,2 C 0,0 C 82 % 85 % 1013,4 hPa 0,0 l/m 0,0 km/h (0 Bft) NO 45 0 min 15,3 C 17,2 C 0,0 km/h (0 Bft)
30.05.2018 23:50 18,3 C 20,2 C 18,0 C 17,9 C 17,1 C 0,0 C 82 % 85 % 1013,4 hPa 0,0 l/m 0,0 km/h (0 Bft) NO 45 0 min 15,2 C 17,1 C 0,0 km/h (0 Bft)
30.05.2018 23:55 18,2 C 20,2 C 17,9 C 17,8 C 16,9 C 0,0 C 82 % 86 % 1013,9 hPa 0,0 l/m 0,0 km/h (0 Bft) N-NO 22 0 min 15,1 C 16,9 C 0,0 km/h (0 Bft)
_ Min-Zeit 04:59 08:24 04:39 04:34 04:14 00:04 18:27 18:27 00:14 - 00:29 - - - 04:49 04:14 00:19
Minimum _ 14,6 C 19,1 C 15,6 C 14,7 C 14,5 C 0,0 C 52 % 55 % 1011,0 hPa - 0,0 km/h (0 Bft) - - - 12,2 C 14,5 C 0,0 km/h (0 Bft)
_ Max-Zeit 13:05 00:24 14:11 13:00 13:00 13:00 04:59 02:54 12:27 00:04 15:25 - - 10:27 12:55 13:00 20:27
Maximum _ 27,9 C 20,4 C 28,5 C 36,4 C 36,4 C 8,7 C 86 % 89 % 1014,8 hPa 0,0 l/m 6,4 km/h
O-NO (2 Bft)
- - 16 min 19,7 C 36,4 C 23,0 km/h
O-SO (4 Bft)
Durchschnitt _ 21,8 C 19,7 C 21,9 C 24,2 C 23,9 C 2,5 C 72 % 76 % 1013,3 hPa #0,0 l/m 1,2 km/h (1 Bft) O-NO - #10:59 h 16,3 C 23,9 C 1,9 km/h (1 Bft)
2018 www.wetterstation-wechselburg.de